[[{"header":{"parameterUnit":"m.s-1","parameterCategory":1,"la1":30.2991,"la2":30.254,"lo1":-89.0895,"lo2":-89.0444,"dy":0.0017,"dx":0.0017,"nx":28,"ny":28,"refTime":"2025-01-07T09:00:00:Z","depth":0,"parameterNumber":2,"parameterNumberName":"U-component_of_WINDS"},"data":[0,0,0,0,0,0,0,0,0,0,0,0,0,0,0,0,0,0,0,0,0,0,0,0,0,0,0,0,0,0,0,0,0,0,0,0,0,0,0,0,0,0,0,0,0,0,0,0,0,0,0,0,0,0,0,0,0,0,-0.7452,-0.7453,0,-0.7549,-0.755,-0.7552,-0.752,-0.7517,-0.7515,-0.7513,-0.7618,-0.7622,-0.7627,0,0,0,0,0,0,0,0,0,0,0,0,0,-0.724,-0.7244,-0.7452,-0.7453,-0.7454,-0.7549,-0.7551,-0.7552,-0.752,-0.7517,-0.7515,-0.7512,-0.7616,-0.7622,-0.7628,0,0,0,0,0,0,0,0,0,0,0,0,0,-0.7335,-0.7246,-0.7451,-0.7449,-0.745,-0.7549,-0.7551,-0.7552,-0.752,-0.7517,-0.7514,-0.7511,-0.7614,-0.7621,-0.7628,-0.7736,0,0,-0.765,-0.7653,0,0,0,0,0,0,0,0,-0.7329,-0.7342,-0.7448,-0.745,-0.7451,-0.7519,-0.7514,-0.7614,-0.7521,-0.7494,-0.7513,-0.7509,-0.7588,-0.7597,-0.7622,-0.7741,-0.7746,-0.7651,-0.7655,-0.7658,-0.766,0,0,0,0,0,0,0,-0.7323,-0.7338,-0.749,-0.745,-0.7451,-0.7445,-0.7455,-0.7533,-0.7558,-0.7496,-0.7494,-0.7506,-0.7588,-0.7616,-0.7625,-0.7747,-0.7651,-0.7657,-0.7661,-0.7664,-0.796,-0.7963,0,0,0,0,0,0,-0.7315,-0.7333,-0.7487,-0.7493,-0.7381,-0.7451,-0.7462,-0.75,-0.7557,-0.7562,-0.7508,-0.7504,-0.7605,-0.7616,-0.7628,-0.7759,-0.7658,-0.7665,-0.7669,-0.7956,-0.796,-0.7964,0,0,0,0,0,0,-0.7311,-0.7329,-0.7483,-0.7413,-0.7432,-0.7458,-0.7501,-0.7504,-0.7532,-0.7566,-0.757,-0.7532,-0.7603,-0.7618,-0.7709,-0.7762,-0.7668,-0.7675,-0.7952,-0.7957,-0.7962,-0.8021,0,0,0,0,0,0,-0.7305,-0.7328,-0.7368,-0.7414,-0.7435,-0.7562,-0.7504,-0.7508,-0.7544,-0.7539,-0.7589,-0.7595,-0.7601,-0.7699,-0.7716,-0.777,-0.768,-0.7947,-0.7954,-0.7961,-0.8015,-0.8028,-0.8039,0,0,0,0,0,-0.7297,-0.7382,-0.7371,-0.739,-0.7487,-0.7565,-0.7578,-0.7583,-0.7548,-0.759,-0.7611,-0.7593,-0.7753,-0.7708,-0.7728,-0.7785,-0.7944,-0.7952,-0.796,-0.8009,-0.8025,-0.8039,0,0,0,0,0,0,-0.7344,-0.7388,-0.7376,-0.7477,-0.7518,-0.756,-0.7613,-0.76,-0.7652,-0.7645,-0.765,-0.7662,-0.7756,-0.7779,-0.7729,-0.7892,-0.7843,-0.7856,-0.7874,-0.789,-0.7901,-0.7895,-0.7686,0,0,0,0,0,-0.7366,-0.7425,-0.746,-0.7547,-0.7567,-0.7586,-0.7621,-0.7621,-0.7663,-0.7681,-0.7709,-0.7752,-0.7812,-0.7852,-0.7909,-0.8017,-0.8028,-0.8065,-0.8077,-0.8087,-0.8099,-0.8158,-0.8176,-0.799,-0.799,-0.799,0,0,-0.7413,-0.7444,-0.7481,-0.7557,-0.7588,-0.765,-0.7601,-0.7669,-0.7716,-0.7691,-0.7779,-0.7802,-0.785,-0.795,-0.7996,-0.7973,-0.8152,-0.8097,-0.8105,-0.8111,-0.8168,-0.8186,-0.8202,-0.7996,-0.7995,-0.7994,0,0,-0.753,-0.7558,-0.7634,-0.7665,-0.7712,-0.7724,-0.7742,-0.7786,-0.7799,-0.7887,-0.787,-0.7926,-0.8028,-0.8064,-0.8095,-0.8223,-0.8209,-0.8242,-0.8307,-0.8365,-0.8379,-0.8392,-0.844,-0.8456,-0.8252,-0.8252,-0.8253,0,-0.7582,-0.7674,-0.7674,-0.7744,-0.7778,-0.7756,-0.7833,-0.7864,-0.7928,-0.7953,-0.7925,-0.8053,-0.8084,-0.8193,-0.8224,-0.8249,-0.8271,-0.8237,-0.8377,-0.839,-0.8402,-0.8447,-0.8465,-0.8256,-0.8256,-0.8255,-0.8255,0,-0.7737,-0.7801,-0.7856,-0.7917,-0.7957,-0.803,-0.8042,-0.8083,-0.8078,-0.8093,-0.8183,-0.8219,-0.8283,-0.8308,-0.8306,-0.8417,-0.8401,-0.8375,-0.8327,-0.8424,-0.8466,-0.8483,-0.8262,-0.826,-0.8259,-0.8258,0,0,-0.7889,-0.7947,-0.7968,-0.7995,-0.8044,-0.8095,-0.8166,-0.8227,-0.8263,-0.8307,-0.8368,-0.8454,-0.843,-0.8466,-0.8467,-0.8517,-0.8618,-0.8485,-0.8486,-0.851,-0.8744,-0.8765,-0.8785,-0.8607,-0.8611,-0.8613,-0.8741,0,-0.8012,-0.8137,-0.8138,-0.8254,-0.8313,-0.8293,-0.8355,-0.8393,-0.8408,-0.8462,-0.8479,-0.8541,-0.8504,-0.8525,-0.8574,-0.8595,-0.8666,-0.8586,-0.8667,-0.867,-0.8658,-0.8807,-0.883,-0.8948,-0.8757,-0.876,-0.8762,0,-0.8172,-0.822,-0.8341,-0.8381,-0.8406,-0.8462,-0.8518,-0.8569,-0.8611,-0.8619,-0.8658,-0.865,-0.8724,-0.8671,-0.8774,-0.872,-0.8753,-0.8768,-0.8773,-0.8783,-0.8724,-0.8823,-0.8986,-0.9005,-0.8788,-0.8786,-0.8784,0,-0.8273,-0.8368,-0.8452,-0.8476,-0.8525,-0.8565,-0.8587,-0.8626,-0.8662,-0.8711,-0.8735,-0.8792,-0.8824,-0.8869,-0.8877,-0.8837,-0.8981,-0.8928,-0.8991,-0.8991,-0.9025,-0.9023,-0.9198,-0.9042,-0.9041,-0.9041,-0.9041,0,-0.8411,-0.8487,-0.8498,-0.8551,-0.8635,-0.8635,-0.8719,-0.8738,-0.8773,-0.8829,-0.8814,-0.8868,-0.8875,-0.893,-0.8937,-0.9022,-0.9036,-0.9046,-0.9047,-0.9049,-0.9048,-0.9072,-0.9065,-0.9046,-0.9045,-0.9044,-0.9043,0,-0.854,-0.855,-0.8642,-0.8679,-0.869,-0.8751,-0.8784,-0.8834,-0.8847,-0.8919,-0.8936,-0.8956,-0.9021,-0.9033,-0.911,-0.9114,-0.9216,-0.9208,-0.9202,-0.9202,-0.9264,-0.9259,-0.9463,-0.949,-0.9314,-0.9316,-0.9317,0,-0.8629,-0.8686,-0.8729,-0.8765,-0.8789,-0.8847,-0.8884,-0.8886,-0.8925,-0.8977,-0.9022,-0.9084,-0.9135,-0.9239,-0.9262,-0.932,-0.9315,-0.9382,-0.9324,-0.9323,-0.9318,-0.9316,-0.9322,-0.9394,-0.9396,-0.9398,-0.9399,0,-0.8786,-0.8788,-0.884,-0.8894,-0.8938,-0.8981,-0.9022,-0.9052,-0.906,-0.9105,-0.917,-0.9209,-0.9286,-0.9349,-0.9407,-0.9431,-0.9418,-0.9416,-0.9434,-0.9438,-0.9433,-0.9438,-0.9235,-0.9413,-0.9411,-0.941,-0.9409,-0.9409,-0.8899,-0.8949,-0.8987,-0.9045,-0.9076,-0.9114,-0.9163,-0.9181,-0.9235,-0.9298,-0.9295,-0.9367,-0.9407,-0.9483,-0.9511,-0.9568,-0.9547,-0.9572,-0.9579,-0.9586,-0.9593,-0.9421,-0.9578,-0.9578,-0.9577,-0.9577,-0.9577,0,-0.9056,-0.9079,-0.9133,-0.919,-0.9236,-0.9216,-0.926,-0.9301,-0.9364,-0.9402,-0.9451,-0.9526,-0.9586,-0.9613,-0.9672,-0.9713,-0.9708,-0.9729,-0.9727,-0.9733,-0.9608,-0.9587,-0.9732,-0.9731,-0.9731,-0.9731,-0.9731,-0.9731,-0.9144,-0.9228,-0.9234,-0.9333,-0.9355,-0.9425,-0.9452,-0.9487,-0.9517,-0.9601,-0.9651,-0.9666,-0.97,-0.9762,-0.9817,-0.9823,-0.9847,-0.9871,-0.9874,-0.9757,-0.9742,-0.9727,-0.9708,-0.9875,-0.9875,-0.9995,-0.9996,-0.9997]},{"header":{"parameterUnit":"m.s-1","parameterCategory":1,"la1":30.2991,"la2":30.254,"lo1":-89.0895,"lo2":-89.0444,"dy":0.0017,"dx":0.0017,"nx":28,"ny":28,"refTime":"2025-01-07T09:00:00:Z","depth":0,"parameterNumber":3,"parameterNumberName":"V-component_of_WINDS"},"data":[0,0,0,0,0,0,0,0,0,0,0,0,0,0,0,0,0,0,0,0,0,0,0,0,0,0,0,0,0,0,0,0,0,0,0,0,0,0,0,0,0,0,0,0,0,0,0,0,0,0,0,0,0,0,0,0,0,0,-5.7251,-5.7252,0,-5.7358,-5.7359,-5.736,-5.7295,-5.7292,-5.7289,-5.7286,-5.739,-5.7395,-5.7401,0,0,0,0,0,0,0,0,0,0,0,0,0,-5.6986,-5.6991,-5.7251,-5.7253,-5.7254,-5.7357,-5.7359,-5.736,-5.7295,-5.7292,-5.7288,-5.7285,-5.7388,-5.7395,-5.7401,0,0,0,0,0,0,0,0,0,0,0,0,0,-5.7098,-5.6993,-5.7251,-5.7234,-5.7234,-5.7357,-5.7359,-5.7361,-5.7296,-5.7292,-5.7287,-5.7283,-5.7386,-5.7394,-5.7402,-5.7547,0,0,-5.7428,-5.7432,0,0,0,0,0,0,0,0,-5.7091,-5.7107,-5.7235,-5.7236,-5.7235,-5.7308,-5.7303,-5.7423,-5.7297,-5.7272,-5.7286,-5.728,-5.7366,-5.7376,-5.7406,-5.7552,-5.7556,-5.7429,-5.7434,-5.7438,-5.744,0,0,0,0,0,0,0,-5.7084,-5.7102,-5.7293,-5.7237,-5.7237,-5.7219,-5.723,-5.7326,-5.7344,-5.7274,-5.727,-5.7283,-5.7365,-5.7398,-5.7408,-5.7558,-5.7429,-5.7436,-5.7441,-5.7445,-5.7824,-5.7829,0,0,0,0,0,0,-5.7078,-5.7096,-5.729,-5.7296,-5.7151,-5.7228,-5.724,-5.7289,-5.7342,-5.7346,-5.7287,-5.728,-5.7386,-5.7398,-5.7411,-5.7582,-5.7438,-5.7445,-5.745,-5.7819,-5.7825,-5.7831,0,0,0,0,0,0,-5.7073,-5.7096,-5.7285,-5.7195,-5.7218,-5.7237,-5.7294,-5.7294,-5.7327,-5.7352,-5.7355,-5.7318,-5.7383,-5.7399,-5.7513,-5.7585,-5.7449,-5.7457,-5.7813,-5.7821,-5.7828,-5.7927,0,0,0,0,0,0,-5.7065,-5.7094,-5.7151,-5.7197,-5.7223,-5.7388,-5.7298,-5.7299,-5.7342,-5.7333,-5.7382,-5.7385,-5.738,-5.7501,-5.7522,-5.7594,-5.7464,-5.7807,-5.7817,-5.7826,-5.7917,-5.7937,-5.7954,0,0,0,0,0,-5.7056,-5.7174,-5.7154,-5.7178,-5.7295,-5.7392,-5.7407,-5.74,-5.7348,-5.7404,-5.742,-5.7384,-5.7574,-5.7513,-5.7536,-5.7612,-5.7803,-5.7814,-5.7825,-5.7909,-5.7933,-5.7953,0,0,0,0,0,0,-5.7135,-5.718,-5.7158,-5.7295,-5.7341,-5.7381,-5.7452,-5.7426,-5.7486,-5.7476,-5.7463,-5.7474,-5.7593,-5.7614,-5.7546,-5.7753,-5.768,-5.7696,-5.7736,-5.7759,-5.7777,-5.7769,-5.7471,0,0,0,0,0,-5.7168,-5.7246,-5.728,-5.7397,-5.7421,-5.7433,-5.7475,-5.7466,-5.7512,-5.753,-5.7555,-5.7599,-5.7669,-5.7715,-5.778,-5.792,-5.7928,-5.7983,-5.8001,-5.8016,-5.803,-5.8104,-5.8128,-5.7868,-5.7868,-5.7868,0,0,-5.7238,-5.7272,-5.7321,-5.7414,-5.7448,-5.7526,-5.7449,-5.7536,-5.7593,-5.7543,-5.7652,-5.7672,-5.772,-5.7847,-5.7904,-5.7868,-5.8104,-5.8031,-5.8042,-5.8048,-5.8118,-5.8142,-5.8164,-5.7876,-5.7874,-5.7873,0,0,-5.7405,-5.7439,-5.754,-5.7576,-5.7629,-5.7635,-5.7659,-5.7704,-5.7715,-5.7825,-5.7788,-5.7855,-5.7976,-5.8012,-5.8045,-5.8224,-5.8192,-5.8245,-5.834,-5.8412,-5.8432,-5.8451,-5.8513,-5.8536,-5.8259,-5.826,-5.826,0,-5.7484,-5.7603,-5.7595,-5.7684,-5.7725,-5.7684,-5.7784,-5.7819,-5.789,-5.7918,-5.7877,-5.8026,-5.8056,-5.819,-5.8233,-5.8263,-5.8288,-5.824,-5.8431,-5.8449,-5.8465,-5.8525,-5.8548,-5.8266,-5.8265,-5.8264,-5.8264,0,-5.7697,-5.778,-5.7855,-5.7926,-5.7975,-5.8069,-5.8073,-5.8123,-5.8109,-5.812,-5.8231,-5.8265,-5.8336,-5.8367,-5.8354,-5.8499,-5.8474,-5.8432,-5.8358,-5.8496,-5.8552,-5.8575,-5.8275,-5.8272,-5.8271,-5.8269,0,0,-5.7918,-5.7983,-5.801,-5.8041,-5.8096,-5.8158,-5.8249,-5.832,-5.8363,-5.8413,-5.8488,-5.859,-5.8551,-5.8589,-5.8579,-5.8643,-5.878,-5.8592,-5.8593,-5.8625,-5.894,-5.8971,-5.8998,-5.8759,-5.8763,-5.8767,-5.8935,0,-5.8088,-5.825,-5.8244,-5.8394,-5.8469,-5.843,-5.8509,-5.855,-5.8562,-5.8625,-5.8637,-5.8709,-5.8653,-5.8675,-5.8736,-5.8751,-5.8843,-5.8738,-5.8827,-5.883,-5.8816,-5.9027,-5.9061,-5.9219,-5.8957,-5.8961,-5.8964,0,-5.8308,-5.8366,-5.8525,-5.8566,-5.8598,-5.8669,-5.8733,-5.8795,-5.8839,-5.8842,-5.8885,-5.8865,-5.8955,-5.8878,-5.9001,-5.893,-5.8965,-5.8977,-5.8983,-5.8991,-5.8905,-5.904,-5.9269,-5.9292,-5.8998,-5.8995,-5.8993,0,-5.8452,-5.857,-5.8679,-5.8707,-5.8759,-5.881,-5.8834,-5.8874,-5.8916,-5.897,-5.8997,-5.9061,-5.9096,-5.9145,-5.9141,-5.9086,-5.9265,-5.9189,-5.9269,-5.927,-5.9309,-5.9307,-5.9547,-5.9333,-5.9332,-5.9332,-5.9332,0,-5.8642,-5.874,-5.8745,-5.8812,-5.892,-5.8911,-5.9017,-5.9035,-5.907,-5.9139,-5.9108,-5.9172,-5.9164,-5.9228,-5.9225,-5.9326,-5.9342,-5.9346,-5.9344,-5.9349,-5.9349,-5.9372,-5.9361,-5.9338,-5.9337,-5.9336,-5.9335,0,-5.8822,-5.8829,-5.8945,-5.8985,-5.8997,-5.9075,-5.9107,-5.917,-5.9178,-5.9265,-5.9284,-5.9297,-5.9371,-5.9372,-5.9456,-5.9454,-5.9577,-5.9563,-5.9563,-5.956,-5.964,-5.9633,-5.9904,-5.9938,-5.9703,-5.9705,-5.9707,0,-5.8943,-5.9017,-5.9065,-5.9109,-5.9136,-5.9208,-5.9251,-5.9244,-5.929,-5.9345,-5.94,-5.9471,-5.9528,-5.9646,-5.9662,-5.9725,-5.9712,-5.9802,-5.9721,-5.9723,-5.9712,-5.9708,-5.9714,-5.9818,-5.9821,-5.9823,-5.9825,0,-5.9156,-5.9155,-5.922,-5.9285,-5.9338,-5.9389,-5.9435,-5.9473,-5.9471,-5.9523,-5.9599,-5.9643,-5.9728,-5.9798,-5.9859,-5.9881,-5.9852,-5.985,-5.9872,-5.9877,-5.9874,-5.9876,-5.9606,-5.9844,-5.9842,-5.9841,-5.984,-5.9839,-5.9309,-5.9373,-5.9416,-5.9488,-5.9523,-5.9567,-5.9628,-5.9644,-5.9707,-5.9777,-5.9769,-5.9852,-5.9892,-5.9971,-5.9998,-6.0062,-6.003,-6.0062,-6.007,-6.0078,-6.0087,-5.9864,-6.0073,-6.0072,-6.0072,-6.0071,-6.0071,0,-5.952,-5.9546,-5.9612,-5.9679,-5.9735,-5.9705,-5.9754,-5.9803,-5.9877,-5.9918,-5.9974,-6.0059,-6.0127,-6.0147,-6.0212,-6.0259,-6.0247,-6.0276,-6.0272,-6.0277,-6.0112,-6.0086,-6.0284,-6.0284,-6.0284,-6.0284,-6.0284,-6.0284,-5.9637,-5.9743,-5.9747,-5.9869,-5.9893,-5.9976,-6.0007,-6.0047,-6.0079,-6.0176,-6.0233,-6.0246,-6.0278,-6.0344,-6.0403,-6.0407,-6.0432,-6.0466,-6.0465,-6.031,-6.0289,-6.0268,-6.0244,-6.0472,-6.0472,-6.0625,-6.0626,-6.0627]}]]